Home   Weather   Lørenskog   Past weeks

Flag for Norway Past Weather in Lørenskog, Norway — Yesterday and Last 2 Weeks

Now
39 °F

Overcast.


Feels Like: 37 °F
Forecast: 34 / 37 °F
Wind: 3 mph from Northeast

Location: Oslo-Blindern

Current Time: Dec 9, 2016 at 8:23:06 pm

Latest Report: Dec 9, 2016 at 7:00 pm


Visibility: 47 mi

Pressure: 29.81 "Hg

Humidity: 80%

Dew Point: 33 °F

Location of LørenskogLocation

Past Weather in Lørenskog — Graph

°F

Lørenskog Temperature Yesterday

Maximum temperature yesterday: 51 °F (at 3:00 pm)
Minimum temperature yesterday: 38 °F (at 11:00 pm)
Average temperature yesterday: 43 °F

High & Low Weather Summary for the Past Weeks

 TemperatureHumidityPressure
High51 °F (Dec 8, 3:00 pm)100% (Dec 8, 4:00 am)30.46 "Hg (Dec 8, 4:00 am)
Low24 °F (Dec 4, 7:00 am)38% (Nov 26, 2:00 pm)29.54 "Hg (Dec 8, 7:00 am)
Average34 °F76%30.00 "Hg
* Reported Nov 24 7:00 pm — Dec 9 7:00 pm, Lørenskog, Weather by CustomWeather, © 2016

Note: Actual official high and low records may vary slightly from our data, if they occured in-between our weather recording intervals... More about our weather records

Advertising

Lørenskog Weather History for the Previous 24 Hours

Scroll right to see more
 ConditionsComfort  
Time TempWeatherWind HumidityBarometerVisibility
7:00 pm
Fri, Dec 9
39 °FChilly.3 mph80%29.81 "Hg31 mi
6:00 pm38 °FChilly.2 mph83%29.85 "Hg31 mi
5:00 pm38 °FChilly.2 mph82%29.84 "Hg31 mi
4:00 pm38 °FChilly.1 mph83%29.85 "Hg31 mi
3:00 pm38 °FChilly.2 mph82%29.84 "Hg31 mi
1:00 pm42 °FPartly sunny.1 mph71%29.82 "Hg43 mi
12:00 pm40 °FChilly.No wind77%29.81 "Hg31 mi
11:00 am40 °FChilly.1 mph77%29.79 "HgN/A
10:00 am35 °FPassing clouds.1 mph86%29.78 "Hg47 mi
9:00 am35 °FChilly.1 mph88%29.76 "Hg31 mi
8:00 am35 °FChilly.3 mph91%29.75 "Hg31 mi
7:00 am35 °FPassing clouds.1 mph91%29.73 "Hg47 mi
6:00 am38 °FChilly.3 mph88%29.73 "HgN/A
5:00 am37 °FChilly.1 mph88%29.74 "Hg31 mi
4:00 am39 °FChilly.2 mph86%29.73 "Hg31 mi
3:00 am38 °FChilly.2 mph87%29.75 "Hg31 mi
2:00 am37 °FChilly.1 mph89%29.76 "Hg31 mi
1:00 am37 °FChilly.1 mph91%29.78 "Hg31 mi
11:00 pm
Thu, Dec 8
38 °FChilly.1 mph88%29.80 "Hg31 mi
10:00 pm39 °FPassing clouds.No wind88%29.79 "Hg47 mi
8:00 pm40 °FChilly.1 mph85%29.78 "Hg31 mi
Weather by CustomWeather, © 2016

See weather overviewHow to use our weather pages